Location: Corcelles
(46.1547°N, 4.7234°E)
Time: 08:28:44
(UTC+00:00)

Meteor 1-19 Rocket - Pass Details

Date: 14 July 2020
Orbit: 810 x 924 km, 81.2° (Epoch: 14 August)

Event Time Altitude Azimuth Distance (km) Brightness Sun altitude
Rises 01:16:48 0° 346° (NNW) 3,449 8.3 -19.2°
Reaches altitude 10° 01:19:17 10° 343° (NNW) 2,490 7.3 -19.1°
Maximum altitude 01:24:49 62° 264° (W) 939 4.2 -18.7°
Enters shadow 01:27:12 33° 197° (SSW) 1,360 4.7 -18.5°
